TimeCDT,TemperatureF,Dew PointF,Humidity,Sea Level PressureIn,VisibilityMPH,Wind Direction,Wind SpeedMPH,Gust SpeedMPH,PrecipitationIn,Events,Conditions,WindDirDegrees,DateUTC
12:53 AM,60.1,53.1,78,29.99,10.0,South,3.5,-,N/A,,Scattered Clouds,190,2013-08-09 05:53:00
1:53 AM,60.1,53.1,78,29.98,10.0,Calm,Calm,-,N/A,,Mostly Cloudy,0,2013-08-09 06:53:00
2:53 AM,59.0,54.0,83,29.98,10.0,Calm,Calm,-,N/A,,Overcast,0,2013-08-09 07:53:00
3:53 AM,57.9,54.0,87,29.97,10.0,Calm,Calm,-,N/A,,Overcast,0,2013-08-09 08:53:00
4:53 AM,57.0,54.0,89,29.96,10.0,Calm,Calm,-,N/A,,Scattered Clouds,0,2013-08-09 09:53:00
5:53 AM,55.9,53.1,90,29.97,10.0,SSW,3.5,-,N/A,,Clear,210,2013-08-09 10:53:00
6:53 AM,60.1,53.1,78,29.97,10.0,Calm,Calm,-,N/A,,Partly Cloudy,0,2013-08-09 11:53:00
7:51 AM,64.4,55.4,73,29.97,10.0,SW,5.8,-,N/A,,Scattered Clouds,230,2013-08-09 12:51:00
7:53 AM,64.0,55.0,73,29.97,10.0,WSW,5.8,-,N/A,,Scattered Clouds,240,2013-08-09 12:53:00
8:53 AM,64.9,57.0,75,29.97,10.0,WSW,5.8,-,N/A,,Mostly Cloudy,250,2013-08-09 13:53:00
9:53 AM,72.0,60.1,66,29.96,10.0,West,9.2,-,N/A,,Partly Cloudy,270,2013-08-09 14:53:00
10:53 AM,73.9,62.1,66,29.96,10.0,West,10.4,-,N/A,,Partly Cloudy,270,2013-08-09 15:53:00
11:53 AM,75.0,61.0,62,29.96,10.0,West,12.7,18.4,N/A,,Partly Cloudy,280,2013-08-09 16:53:00
12:53 PM,77.0,59.0,54,29.95,10.0,West,13.8,19.6,N/A,,Partly Cloudy,270,2013-08-09 17:53:00
1:53 PM,78.1,57.0,48,29.95,10.0,WNW,13.8,21.9,N/A,,Scattered Clouds,290,2013-08-09 18:53:00
2:53 PM,78.1,55.9,46,29.96,10.0,WNW,12.7,-,N/A,,Partly Cloudy,300,2013-08-09 19:53:00
3:53 PM,75.0,53.1,46,29.97,10.0,NW,9.2,-,N/A,,Clear,310,2013-08-09 20:53:00
4:53 PM,77.0,51.1,40,29.98,10.0,WNW,15.0,20.7,N/A,,Clear,300,2013-08-09 21:53:00
5:53 PM,75.9,53.1,45,29.99,10.0,NNW,9.2,-,N/A,,Partly Cloudy,330,2013-08-09 22:53:00
6:53 PM,73.9,53.1,48,29.99,10.0,NNW,5.8,-,N/A,,Clear,330,2013-08-09 23:53:00
7:53 PM,70.0,55.0,59,30.01,10.0,NW,3.5,-,N/A,,Clear,320,2013-08-10 00:53:00
8:53 PM,63.0,57.9,84,30.04,10.0,NNW,6.9,-,N/A,,Clear,330,2013-08-10 01:53:00
9:53 PM,63.0,53.1,70,30.04,10.0,NNW,5.8,-,N/A,,Clear,340,2013-08-10 02:53:00
10:53 PM,61.0,54.0,78,30.05,10.0,NNW,4.6,-,N/A,,Partly Cloudy,340,2013-08-10 03:53:00
11:53 PM,59.0,54.0,83,30.07,10.0,West,3.5,-,N/A,,Mostly Cloudy,280,2013-08-10 04:53:00